Weather in Naga

Philippines     13°35′53″N   123°11′57″E
temp.,
°C
wind,
m/s
gust,
m/s
humid.,
%
clouds,
%
prec.,
mm/h
press.,
hPa
HPBL,
m
15 may, sat
sat1523:00+25ne118623 0.1 101030
02:00+25ne11913 0.1 100927
05:00+24e119547 1.6 100927
08:00+29e247517 3.6 1010690
11:00+33ene345445 0.8 10101558
14:00+33ene355062 1.2 10081525
17:00+30ene466660 0.1 1007613
20:00+26ene22865 0.1 100956
16 may, sun
sun1623:00+25ene119039 0.0 101031
02:00+25ne1194100 0.0 100924
05:00+24ne119592 0.1 100923
08:00+30ene247046 0.1 1011835
11:00+33ene345380 0.0 10091614
14:00+33ene3451100 0.1 10081358
17:00+30ene3564100 0.1 1008490
20:00+26ene238518 0.1 101085
17 may, mon
mon1723:00+25ene119136 0.0 101026
02:00+24ene119479 0.0 100924
05:00+24ene1195100 0.0 100923
08:00+29ene246989 0.0 1010827
11:00+34ene344981 0.0 10091658
14:00+34e234590 0.0 10071695
17:00+31ene356336 0.0 1007674
20:00+26ene1285100 0.1 100938
18 may, tue
tue1823:00+25ne1190100 0.0 101030
02:00+25ne1192100 0.0 100830
05:00+25ne119397 0.0 100926
08:00+30ene246867 0.0 1010848
11:00+34ene455288 0.0 10091554
14:00+33ene5653100 0.3 10071413
17:00+30ene4669100 0.6 1007679
20:00+26ene2384100 0.9 1009108
19 may, wed
wed1923:00+25ene1289100 0.0 100950
02:00+25ne1193100 0.0 100831
05:00+24ne1195100 0.0 100824
08:00+28e1475100 0.0 1010650
11:00+33e3452100 0.1 10091602
14:00+34e2344100 0.1 10071926
17:00+30ene346121 0.1 1007664
20:00+26ene2381100 0.1 100972